OV1-4 R/B, 2124

Orbit data source: Space-Track

OV1-4 R/B, 2124 is space debris in LEO originally from a launch on Wed, 30 Mar 1966 UTC launched from the Air Force Western Test Range (AFWTR). Debris objects in space refer to the collection of defunct objects orbiting the Earth. Examples of debris include non-operational satellites, rocket bodies, and fragments generated from explosions, collisions, or faulty payload assembly.

Loading next visibility...
Identifier
2124, 1966-025D
Orbit
LEO
Last TLE update
1 day ago
Origin
Manufacturer
ABL
Mission
Spacecraft
Bus & Motor
ALTAIR, Unknown motor
Mass
~125 kg wet, ~125 kg dry
Launch date (UTC)
1966-03-30 (59 years ago)
Launch vehicle
Unknown
Launch site
Air Force Western Test Range (AFWTR)
Object type
Payload
Rocket body
Debris
Shape & HBR
Cyl, 2.1 m
Radar Cross Section
1.347 m², Medium (>0.1 m² and < 1m²)

Expand to show TLE details & history

TLE from 1 day ago
0 OV1-4 R/B
1 02124U 66025D   25181.52019583  .00000303  00000-0  26962-4 0  9993
2 02124 144.5105  88.4020 0080199 116.2649 244.6293 13.87771215  2722
Epoch: 2025-06-30T12:29Z
TLE epoch observation values (Epoch: 2025-06-30T12:29:04.919Z)
Latitude
Longitude
-17.69733°
Altitude
960.985 km
Speed
7.36 km/s
True Right ascension
05h 53m 36s
True Declination
0° 00' 00"
Sunlit
Object was in daylight at epoch
Visualization orbit readout
Latitude
-35.00294°
Longitude
64.99317°
Altitude
999.57 km
Speed
7.326 km/s
Apparent Right ascension
11h 38m 06s
Apparent Declination
-37° 10' 13"
Sunlit
Object is in daylight
Visualization observer readout
Local Sidereal Time
23:55:04
Azimuth
51.731° ENE
Elevation
-85.694°
Doppler factor
1
Orbital elements
Apogee altitude
998.121 km
Perigee altitude
880.748 km
Semi-major axis
7,317.572 km
Eccentricity
0.00802
Inclination
144.5105°
RAAN
88.402°
Arg. of periapsis
116.2649°
True anomaly
Unknown
Mean anomaly
244.6293°
Eccentric anomaly
Unknown
Mean motion
3.46731 °/min
Orbital period
103.83 mins
BSTAR
0.000026962
Loading maneuver chart data...
Loading SW <> Apogee altitude chart data...
Loading historical data...
Loading historical data...
Loading historical data...
Loading historical data...
Loading historical data...
Loading historical data...
Loading historical data...

OV1-4 R/B Visibility forecast

Observer location: undefined°, undefined°

Span
Click to sort rows by Start time (UTC) header in descending order
Start Az.
Max El. time (UTC)
Max El. Az.
Max El.
End time (UTC)
End Az.
9 mins2025-07-01 12:59:19.780Z107.847° ESE2025-07-01 13:04:19.780Z202.389° SSW39.25°2025-07-01 13:08:19.780Z259.442° W
8 mins2025-07-01 14:38:19.780Z135.004° SSE2025-07-01 14:42:19.780Z198.265° SSW32.08°2025-07-01 14:46:19.780Z259.575° W
6 mins2025-07-01 16:18:19.780Z177.387° S2025-07-01 16:20:19.780Z201.563° SSW17.076°2025-07-01 16:24:19.780Z248.788° W
7 mins2025-07-02 09:55:19.780Z114.473° SE2025-07-02 09:58:19.780Z162.373° S24.714°2025-07-02 10:02:19.780Z213.421° SW
8 mins2025-07-02 11:33:19.780Z104.521° ESE2025-07-02 11:36:19.780Z161.8° S37.182°2025-07-02 11:41:19.780Z243.38° WSW
|